Flag for Germany Weather past 2 weeks in Heidenheim an der Brenz, Baden-Württemberg, Germany

43 °F

Light rain. Overcast.

Feels Like: 36 °F
Forecast: 43 / 48 °F
Wind: 16 mph from West

Location: Stoetten

Current Time: Nov 30, 2015 at 9:19:34 AM

Latest Report: Nov 30, 2015 at 8:00 AM

Visibility: 14 mi

Pressure: 30.19 "Hg

Humidity: 86%

Dew point: 39 °F

Location of Heidenheim an der BrenzLocation

Historic Weather in Heidenheim an der Brenz — Graph


Heidenheim an der Brenz temperature yesterday

Maximum temperature yesterday: 43 °F (at 10:00 PM)
Minimum temperature yesterday: 30 °F (at 3:00 AM)
Average temperature yesterday: 37 °F

Past Weeks' High & Low Weather Summary

High60 °F (Nov 16, 2:00 PM)100% (Nov 20, 9:00 AM)30.36 "Hg (Nov 20, 9:00 AM)
Low24 °F (Nov 24, 5:00 PM)45% (Nov 16, 2:00 PM)29.41 "Hg (Nov 21, 2:00 PM)
Average38 °F88%30.00 "Hg
* Reported Nov 15 8:00 AM — Nov 30 8:00 AM, Heidenheim an der Brenz, Weather by CustomWeather, © 2015

Note: Actual official high and low records may vary slightly from our data, if they occured in-between our weather recording intervals... More about our weather records


Heidenheim an der Brenz weather history for previous 24 hours

Time TempWeatherWind HumidityBarometerVisibility
8:00 AM
Mon, Nov 30
43 °FLight rain. Overcast.16 mph86%30.19 "Hg14 mi
7:00 AM43 °FLight rain. Overcast.16 mph87%30.18 "Hg11 mi
5:00 AM44 °FLight rain. Overcast.16 mph80%30.16 "Hg14 mi
4:00 AM45 °FOvercast.20 mph75%30.14 "Hg43 mi
3:00 AM45 °FLight rain. Overcast.20 mph75%30.13 "Hg40 mi
1:00 AM44 °FOvercast.20 mph76%30.14 "Hg37 mi
10:00 PM
Sun, Nov 29
43 °FOvercast.18 mph78%30.12 "Hg43 mi
9:00 PM42 °FLight rain. Overcast.15 mph77%30.13 "Hg47 mi
8:00 PM42 °FOvercast.20 mph77%30.12 "Hg43 mi
7:00 PM42 °FLight rain. Overcast.18 mph78%30.11 "Hg47 mi
6:00 PM42 °FOvercast.17 mph80%30.10 "Hg47 mi
5:00 PM42 °FOvercast.17 mph81%30.10 "Hg47 mi
4:00 PM41 °FOvercast.12 mph85%30.11 "Hg47 mi
3:00 PM41 °FOvercast.16 mph82%30.09 "Hg47 mi
2:00 PM40 °FOvercast.14 mph83%30.09 "Hg37 mi
1:00 PM40 °FOvercast.13 mph83%30.07 "Hg47 mi
12:00 PM35 °FOvercast.9 mph92%30.11 "Hg47 mi
11:00 AM34 °FOvercast.10 mph96%30.14 "Hg43 mi
10:00 AM33 °FLight snow. Low clouds.8 mph98%30.14 "Hg7 mi
9:00 AM32 °FLight snow. Overcast.9 mph98%30.14 "Hg2 mi
Weather by CustomWeather, © 2015

See weather overviewHow to use our weather pages